Regional Weather Roundup
Issued by NWS

Home | Current Version | Previous Version | Text Only | Print | Product List | Glossary On
Versions: 1 2 3 4 5 6 7 8 9 10 11 12 13 14 15 16 17 18 19 20 21 22 23 24 25 26 27 28 29 30 31 32 33 34 35 36 37 38 39 40 41 42 43 44 45 46 47 48 49 50
000
ASUS45 KABQ 180410
RWRNM
WEATHER ROUNDUP FOR NEW MEXICO
NATIONAL WEATHER SERVICE ALBUQUERQUE NM
1000 PM MDT FRI APR 17 2015

NOTE: "FAIR" MEANS FEW OR NO CLOUDS BELOW 12,000 FEET AGL WITH NO
       SIGNIFICANT WEATHER OR OBSTRUCTIONS TO VISION.

      THIS PRODUCT IS RELEASED AS TWO VERSIONS.  ONE VERSION NEAR
      THE TOP OF THE HOUR CONTAINING PRELIMINARY DATA FROM ALBUQUERQUE
      AND OTHER STATIONS.  A FINAL VERSION WITH ADDITIONAL DATA IS
      ISSUED ABOUT 10 MINUTES AFTER THE HOUR.

NMZ501-503-504-510>518-180500-
NORTHWEST PLATEAU/NORTHCENTRAL MOUNTAINS

CITY           SKY/WX    TMP DP  RH WIND       PRES   REMARKS
FARMINGTON     LGT RAIN  38  33  82 VRB5      30.04R WCI  34
LOS ALAMOS     CLOUDY    35  21  56 CALM      30.07S
SANTA FE       CLOUDY    41  22  46 SW14      30.06R
ANGEL FIRE     FAIR      28  17  62 SE5       30.07R WCI  23

$$
NMZ402-403-502-505>509-180500-
WESTCENTRAL MOUNTAINS/SOUTHWEST MOUNTAINS

CITY           SKY/WX    TMP DP  RH WIND       PRES   REMARKS
GALLUP         CLOUDY    45  22  40 W9        30.06R
GRANTS         CLOUDY    39  22  50 W3        30.08R
SILVER CITY      N/A     46   5  18 N3        30.09R

$$
NMZ407-409-411-412-180500-
SOUTHERN DESERTS

CITY           SKY/WX    TMP DP  RH WIND       PRES   REMARKS
LORDSBURG      FAIR      54   9  16 W9        30.05R
DEMING         CLEAR     54   7  15 NW8       30.03R
LAS CRUCES     CLEAR     56   6  13 NW9       30.03S
HOLLOMAN AFB   PTCLDY    54  10  17 SW7       29.99R
ALAMOGORDO     PTCLDY    50  14  23 SE7       30.01R
T OR C         CLEAR     51  16  24 W3        30.03R

$$
NMZ519>523-180500-
CENTRAL VALLEYS/CENTRAL HIGHLANDS

CITY           SKY/WX    TMP DP  RH WIND       PRES   REMARKS
ALBUQUERQUE    CLOUDY    48  22  35 N13       30.06R
DOUBLE EAGLE   MOCLDY    43  25  49 N9        30.08R
MORIARTY ARPT  FAIR      43  19  38 NW12      30.08R
CLINES CORNERS CLOUDY    39  17  41 NW10      30.05R WCI  32
BELEN          CLOUDY    46  22  37 N7        30.06R
SOCORRO        FAIR      49  17  27 NW13      30.04R

$$
NMZ524>526-539-540-180500-
SOUTHCENTRAL MOUNTAINS

CITY           SKY/WX    TMP DP  RH WIND       PRES   REMARKS
RUIDOSO        PTCLDY    39  10  30 SW8       30.08S WCI  34

$$
NMZ527>531-180500-
NORTHEAST HIGHLANDS/NORTHEAST PLAINS

CITY           SKY/WX    TMP DP  RH WIND       PRES   REMARKS
LAS VEGAS      PTCLDY    34  18  52 CALM      30.05R
RATON          CLOUDY    42  19  39 SW17      30.00R
CLAYTON        PTCLDY    44  15  31 W8        29.97S

$$
NMZ532>537-180500-
EASTCENTRAL PLAINS

CITY           SKY/WX    TMP DP  RH WIND       PRES   REMARKS
TUCUMCARI      CLEAR     44  16  32 W9        29.98R
CANNON AFB     NOT AVBL
CLOVIS AIRPORT CLEAR     48  18  29 W10       29.99S

$$
NMZ028-029-538-180500-
SOUTHEAST PLAINS

CITY           SKY/WX    TMP DP  RH WIND       PRES   REMARKS
ROSWELL        CLEAR     46  32  58 SW5       29.98R
ARTESIA        CLEAR     50  23  34 W10       29.98S
CARLSBAD       PTCLDY    51  22  31 SW5       29.97R
HOBBS          CLEAR     50  34  53 W8        29.99R


$$


USA.gov is the U.S. government's official web portal to all federal, state and local government web resources and services.